| time (UTC) | temp F | wind direction | speed MPH | gust MPH | rain 1hr in | rain 24hr in | rain mn in | humidity % | barometer mb |
| 20260509011532 | 53 | 0 | 0.0 | 0.0 | 0.00 | 0.04 | 0.04 | 55 | 1011.8 |
| 20260509010031 | 54 | 0 | 0.0 | 0.0 | 0.00 | 0.04 | 0.04 | 54 | 1011.7 |
| 20260509004532 | 54 | 0 | 0.0 | 0.0 | 0.00 | 0.04 | 0.04 | 53 | 1011.7 |
| 20260509003109 | 55 | 0 | 0.0 | 0.0 | 0.00 | 0.04 | 0.04 | 53 | 1011.7 |
| 20260509001557 | 55 | 0 | 0.0 | 1.0 | 0.00 | 0.04 | 0.04 | 51 | 1011.4 |
| 20260509000029 | 56 | 216 | 0.0 | 1.0 | 0.00 | 0.04 | 0.04 | 52 | 1011.2 |
| 20260508234530 | 57 | 0 | 0.0 | 1.0 | 0.00 | 0.04 | 0.04 | 49 | 1010.9 |
| 20260508233030 | 57 | 0 | 0.0 | 1.0 | 0.00 | 0.04 | 0.04 | 47 | 1010.7 |
| 20260508231559 | 58 | 0 | 0.0 | 1.0 | 0.00 | 0.04 | 0.04 | 46 | 1010.6 |
| 20260508230128 | 59 | 0 | 0.0 | 1.0 | 0.00 | 0.04 | 0.04 | 44 | 1010.6 |
| 20260508224531 | 59 | 0 | 0.0 | 2.0 | 0.00 | 0.04 | 0.04 | 42 | 1010.5 |
| 20260508223034 | 60 | 0 | 0.0 | 1.0 | 0.00 | 0.04 | 0.04 | 41 | 1010.4 |
| 20260508221530 | 60 | 26 | 0.0 | 1.0 | 0.00 | 0.04 | 0.04 | 43 | 1010.4 |
| 20260508220105 | 60 | 185 | 0.0 | 1.0 | 0.00 | 0.04 | 0.04 | 41 | 1010.2 |
| 20260508214532 | 60 | 145 | 1.0 | 5.0 | 0.00 | 0.04 | 0.04 | 40 | 1010.5 |
| 20260508213035 | 61 | 0 | 0.0 | 7.0 | 0.00 | 0.04 | 0.04 | 41 | 1010.6 |
| 20260508211534 | 60 | 225 | 0.0 | 4.0 | 0.00 | 0.04 | 0.04 | 42 | 1010.7 |
| 20260508210035 | 63 | 210 | 0.0 | 5.0 | 0.00 | 0.04 | 0.04 | 37 | 1010.4 |
| 20260508204534 | 63 | 198 | 0.0 | 6.0 | 0.00 | 0.04 | 0.04 | 40 | 1010.5 |
| 20260508203245 | 62 | 286 | 0.0 | 3.0 | 0.00 | 0.04 | 0.04 | 44 | 1010.6 |
| 20260508201534 | 61 | 204 | 1.0 | 9.0 | 0.00 | 0.04 | 0.04 | 42 | 1010.9 |
| 20260508200038 | 62 | 0 | 0.0 | 4.0 | 0.01 | 0.04 | 0.04 | 42 | 1010.9 |
| 20260508191649 | 56 | 0 | 0.0 | 4.0 | 0.01 | 0.04 | 0.04 | 47 | 1011.7 |
| 20260508184540 | 57 | 92 | 0.0 | 2.0 | 0.00 | 0.03 | 0.03 | 48 | 1011.6 |
| 20260508183030 | 57 | 219 | 0.0 | 4.0 | 0.00 | 0.03 | 0.03 | 46 | 1011.7 |
| 20260508181538 | 57 | 231 | 1.0 | 6.0 | 0.00 | 0.03 | 0.03 | 46 | 1011.8 |
| 20260508180028 | 58 | 250 | 2.0 | 6.0 | 0.00 | 0.03 | 0.03 | 40 | 1011.5 |
| 20260508174536 | 60 | 252 | 1.0 | 5.0 | 0.00 | 0.03 | 0.03 | 35 | 1011.3 |
| 20260508173029 | 62 | 351 | 1.0 | 5.0 | 0.00 | 0.03 | 0.03 | 37 | 1011.2 |
| 20260508171528 | 60 | 113 | 1.0 | 3.0 | 0.00 | 0.03 | 0.03 | 36 | 1011.4 |
| 20260508170030 | 60 | 0 | 1.0 | 5.0 | 0.00 | 0.03 | 0.03 | 37 | 1011.3 |
| 20260508164527 | 58 | 176 | 1.0 | 7.0 | 0.00 | 0.03 | 0.03 | 38 | 1011.8 |
| 20260508163036 | 58 | 261 | 1.0 | 5.0 | 0.00 | 0.03 | 0.03 | 43 | 1012.0 |
| 20260508161534 | 57 | 94 | 1.0 | 4.0 | 0.00 | 0.03 | 0.03 | 41 | 1012.2 |
| 20260508160031 | 57 | 221 | 1.0 | 6.0 | 0.00 | 0.03 | 0.03 | 45 | 1012.3 |
| 20260508154529 | 56 | 0 | 1.0 | 4.0 | 0.00 | 0.03 | 0.03 | 47 | 1012.5 |
| 20260508153028 | 56 | 246 | 1.0 | 4.0 | 0.00 | 0.03 | 0.03 | 43 | 1012.6 |
| 20260508151528 | 54 | 187 | 0.0 | 3.0 | 0.00 | 0.03 | 0.03 | 49 | 1012.9 |
| 20260508150034 | 52 | 246 | 2.0 | 4.0 | 0.00 | 0.03 | 0.03 | 50 | 1013.1 |
| 20260508144531 | 50 | 0 | 0.0 | 1.0 | 0.00 | 0.03 | 0.03 | 55 | 1013.0 |
| 20260508143030 | 49 | 248 | 0.0 | 3.0 | 0.00 | 0.03 | 0.03 | 56 | 1013.3 |
| 20260508141528 | 49 | 309 | 0.0 | 3.0 | 0.00 | 0.03 | 0.03 | 56 | 1013.3 |
| 20260508140034 | 49 | 237 | 0.0 | 3.0 | 0.00 | 0.03 | 0.03 | 57 | 1013.3 |
| 20260508134533 | 49 | 227 | 0.0 | 3.0 | 0.00 | 0.03 | 0.03 | 55 | 1013.3 |
| 20260508133028 | 49 | 212 | 0.0 | 2.0 | 0.00 | 0.03 | 0.03 | 53 | 1013.1 |
| 20260508131530 | 50 | 212 | 0.0 | 2.0 | 0.00 | 0.03 | 0.03 | 57 | 1013.1 |
| 20260508130030 | 50 | 204 | 0.0 | 2.0 | 0.00 | 0.03 | 0.03 | 64 | 1013.1 |
| 20260508124530 | 48 | 126 | 0.0 | 1.0 | 0.00 | 0.03 | 0.03 | 65 | 1013.1 |
| 20260508123027 | 45 | 120 | 0.0 | 1.0 | 0.00 | 0.03 | 0.03 | 67 | 1013.0 |
| 20260508121538 | 43 | 0 | 0.0 | 0.0 | 0.00 | 0.03 | 0.03 | 70 | 1013.1 |
| 20260508120028 | 41 | 0 | 0.0 | 0.0 | 0.00 | 0.03 | 0.03 | 69 | 1013.3 |
| 20260508114527 | 40 | 0 | 0.0 | 1.0 | 0.00 | 0.03 | 0.03 | 70 | 1013.3 |
| 20260508113031 | 40 | 0 | 0.0 | 1.0 | 0.00 | 0.03 | 0.03 | 70 | 1013.1 |
| 20260508111529 | 39 | 0 | 0.0 | 1.0 | 0.00 | 0.03 | 0.03 | 70 | 1013.3 |
| 20260508110030 | 39 | 0 | 0.0 | 0.0 | 0.00 | 0.03 | 0.03 | 70 | 1013.0 |
| 20260508104530 | 39 | 0 | 0.0 | 1.0 | 0.00 | 0.03 | 0.03 | 70 | 1012.9 |
| 20260508103036 | 38 | 0 | 0.0 | 1.0 | 0.00 | 0.03 | 0.03 | 69 | 1012.9 |
| 20260508101532 | 38 | 0 | 0.0 | 1.0 | 0.00 | 0.03 | 0.03 | 69 | 1012.8 |
| 20260508100031 | 39 | 0 | 0.0 | 0.0 | 0.00 | 0.03 | 0.03 | 69 | 1012.6 |
| 20260508094528 | 38 | 0 | 0.0 | 0.0 | 0.00 | 0.03 | 0.03 | 69 | 1012.5 |
| 20260508093031 | 38 | 0 | 0.0 | 0.0 | 0.00 | 0.03 | 0.03 | 69 | 1012.6 |
| 20260508091536 | 39 | 0 | 0.0 | 0.0 | 0.00 | 0.03 | 0.03 | 69 | 1012.4 |
| 20260508090029 | 39 | 0 | 0.0 | 0.0 | 0.00 | 0.03 | 0.03 | 69 | 1012.3 |
| 20260508084529 | 40 | 0 | 0.0 | 0.0 | 0.00 | 0.03 | 0.03 | 69 | 1012.1 |
| 20260508083030 | 39 | 0 | 0.0 | 0.0 | 0.00 | 0.03 | 0.03 | 69 | 1011.9 |
| 20260508081555 | 39 | 0 | 0.0 | 0.0 | 0.00 | 0.03 | 0.03 | 68 | 1011.9 |
| 20260508080028 | 39 | 0 | 0.0 | 0.0 | 0.00 | 0.03 | 0.03 | 66 | 1011.9 |
| 20260508074530 | 39 | 0 | 0.0 | 0.0 | 0.00 | 0.03 | 0.03 | 67 | 1011.7 |
| 20260508073028 | 39 | 0 | 0.0 | 0.0 | 0.00 | 0.03 | 0.03 | 67 | 1011.6 |
| 20260508071539 | 40 | 0 | 0.0 | 0.0 | 0.00 | 0.03 | 0.03 | 68 | 1011.6 |
| 20260508070029 | 41 | 0 | 0.0 | 0.0 | 0.00 | 0.03 | 0.03 | 69 | 1011.7 |
| 20260508064530 | 42 | 0 | 0.0 | 0.0 | 0.00 | 0.07 | 0.03 | 70 | 1011.6 |
| 20260508063044 | 43 | 0 | 0.0 | 1.0 | 0.03 | 0.07 | 0.03 | 70 | 1011.4 |
| 20260508061530 | 44 | 0 | 0.0 | 1.0 | 0.03 | 0.07 | 0.03 | 70 | 1011.3 |
| 20260508060035 | 45 | 0 | 0.0 | 1.0 | 0.03 | 0.07 | 0.03 | 69 | 1011.2 |
| 20260508054531 | 46 | 91 | 0.0 | 5.0 | 0.03 | 0.09 | 0.03 | 66 | 1011.7 |
| 20260508053033 | 47 | 89 | 0.0 | 2.0 | 0.00 | 0.06 | 0.00 | 60 | 1011.9 |
| 20260508051534 | 47 | 0 | 0.0 | 6.0 | 0.00 | 0.06 | 0.00 | 59 | 1011.5 |
| 20260508050028 | 47 | 117 | 1.0 | 6.0 | 0.00 | 0.06 | 0.00 | 58 | 1011.2 |
| 20260508044530 | 48 | 109 | 1.0 | 10.0 | 0.00 | 0.06 | 0.00 | 59 | 1010.7 |
| 20260508043030 | 48 | 150 | 0.0 | 0.0 | 0.00 | 0.06 | 0.00 | 60 | 1010.4 |
| 20260508041530 | 48 | 0 | 0.0 | 0.0 | 0.00 | 0.06 | 0.00 | 60 | 1010.0 |
| 20260508040030 | 49 | 0 | 0.0 | 2.0 | 0.00 | 0.06 | 0.00 | 56 | 1010.0 |
| 20260508034532 | 50 | 0 | 2.0 | 5.0 | 0.00 | 0.06 | 0.06 | 52 | 1010.6 |
| 20260508033031 | 48 | 0 | 0.0 | 0.0 | 0.00 | 0.06 | 0.06 | 58 | 1009.8 |
| 20260508031531 | 48 | 0 | 0.0 | 0.0 | 0.00 | 0.06 | 0.06 | 54 | 1009.0 |
| 20260508030028 | 49 | 0 | 0.0 | 0.0 | 0.00 | 0.06 | 0.06 | 53 | 1008.9 |
| 20260508024542 | 51 | 0 | 0.0 | 1.0 | 0.00 | 0.06 | 0.06 | 54 | 1008.8 |
| 20260508023029 | 51 | 0 | 0.0 | 0.0 | 0.00 | 0.06 | 0.06 | 51 | 1009.1 |
| 20260508021530 | 51 | 0 | 0.0 | 0.0 | 0.00 | 0.06 | 0.06 | 43 | 1009.1 |
| 20260508020029 | 52 | 0 | 0.0 | 0.0 | 0.00 | 0.06 | 0.06 | 48 | 1009.0 |
| 20260508014534 | 52 | 0 | 0.0 | 0.0 | 0.00 | 0.06 | 0.06 | 44 | 1008.8 |
| 20260508013029 | 52 | 0 | 0.0 | 1.0 | 0.00 | 0.06 | 0.06 | 46 | 1008.8 |